Fredericksburg, TX

7:39 PM CDT on March 28, 2017 (GMT -0500)
Fredericksburg

Weather History for KT82 - October, 2012

Change the Weather History Date:

Friday, October 19, 2012

  Actual Average (KSAT) Record (KSAT)
Temperature  
Mean Temperature 58 °F -  
Max Temperature 77 °F 79 °F 92 °F (1979)
Min Temperature 40 °F 56 °F 38 °F (1989)
Degree Days  
Heating Degree Days 6    
Growing Degree Days 8 (Base 50)    
Moisture  
Dew Point 41 °F    
Average Humidity 61    
Maximum Humidity 99    
Minimum Humidity 21    
Precipitation  
Precipitation 0.00 in - - ()
Sea Level Pressure  
Sea Level Pressure 30.02 in    
Wind  
Wind Speed 2 mph (South)    
Max Wind Speed 9 mph    
Max Gust Speed -    
Visibility 10 miles    
Events      
Averages and records for this station are not official NWS values.
T = Trace of Precipitation, MM = Missing Value Source: NWS Daily Summary

Daily Weather History Graph

Daily Weather History Graph

Search for Another Location

Airport or City:

Trip Planner

Search our weather history database for the weather conditions in past years. The results will help you decide how hot, cold, wet, or windy it might be!

Date:

Astronomy

Oct. 19, 2012 Rise Set
Actual Time 7:40 AM CDT 6:59 PM CDT
Civil Twilight 7:16 AM CDT 7:24 PM CDT
Nautical Twilight 6:48 AM CDT 7:52 PM CDT
Astronomical Twilight 6:20 AM CDT 8:19 PM CDT
Moon 12:10 PM CDT (10/19) 10:53 PM CDT (10/19)
Length of Visible Light 12h 07m
Length of Day
11h 19m
Waxing Crescent, 24% of the Moon is Illuminated
Oct 19
Waxing Crescent
Oct 21
First Quarter
Oct 29
Full
Nov 6
Last Quarter
Nov 13
New

Hourly Weather History & Observations

Time (CDT) Temp. Windchill Dew Point Humidity Pressure Visibility Wind Dir Wind Speed Gust Speed Precip Events Conditions
1:15 AM 47.3 °F - 42.8 °F 84% 30.03 in 10.0 mi Calm Calm - N/A   Clear
1:35 AM 46.8 °F - 41.9 °F 83% 30.03 in 10.0 mi Calm Calm - N/A   Clear
1:55 AM 45.5 °F - 43.0 °F 91% 30.03 in 10.0 mi Calm Calm - N/A   Clear
2:15 AM 45.7 °F - 43.2 °F 91% 30.03 in 10.0 mi Calm Calm - N/A   Clear
2:35 AM 44.6 °F 43.1 °F 42.3 °F 91% 30.04 in 10.0 mi WNW 3.5 mph - N/A   Clear
2:55 AM 44.2 °F - 42.4 °F 93% 30.04 in 10.0 mi Calm Calm - N/A   Clear
3:15 AM 45.0 °F - 41.9 °F 89% 30.04 in 10.0 mi Calm Calm - N/A   Clear
3:35 AM 44.6 °F - 42.4 °F 92% 30.03 in 10.0 mi Calm Calm - N/A   Clear
3:55 AM 44.1 °F - 42.3 °F 93% 30.03 in 10.0 mi Calm Calm - N/A   Clear
4:15 AM 42.4 °F - 41.9 °F 98% 30.03 in 10.0 mi Calm Calm - N/A   Clear
4:35 AM 42.8 °F 41.1 °F 41.7 °F 96% 30.04 in 10.0 mi WNW 3.5 mph - N/A   Clear
4:55 AM 42.6 °F 40.9 °F 40.8 °F 93% 30.04 in 10.0 mi West 3.5 mph - N/A   Clear
5:15 AM 42.8 °F 41.1 °F 41.0 °F 93% 30.04 in 10.0 mi West 3.5 mph - N/A   Clear
5:35 AM 42.3 °F - 41.7 °F 98% 30.04 in 10.0 mi Calm Calm - N/A   Clear
5:55 AM 41.4 °F - 41.0 °F 99% 30.04 in 10.0 mi Calm Calm - N/A   Clear
6:15 AM 41.0 °F 39.0 °F 40.5 °F 98% 30.04 in 10.0 mi WNW 3.5 mph - N/A   Clear
6:35 AM 41.2 °F - 40.5 °F 97% 30.04 in 10.0 mi Calm Calm - N/A   Clear
6:55 AM 41.0 °F 39.0 °F 40.5 °F 98% 30.04 in 10.0 mi WSW 3.5 mph - N/A   Clear
7:15 AM 40.6 °F - 40.3 °F 99% 30.04 in 10.0 mi Calm Calm - N/A   Clear
7:35 AM 40.3 °F 38.2 °F 40.1 °F 99% 30.05 in 10.0 mi WSW 3.5 mph - N/A   Clear
7:55 AM 40.1 °F - 39.7 °F 99% 30.06 in 10.0 mi Calm Calm - N/A   Clear
8:15 AM 40.6 °F 38.6 °F 40.1 °F 98% 30.06 in 10.0 mi WSW 3.5 mph - N/A   Clear
8:35 AM 41.9 °F 40.0 °F 40.8 °F 96% 30.07 in 10.0 mi WSW 3.5 mph - N/A   Clear
8:55 AM 44.4 °F - 42.4 °F 93% 30.07 in 10.0 mi Calm Calm - N/A   Clear
9:15 AM 46.9 °F - 43.7 °F 88% 30.07 in 10.0 mi Calm Calm - N/A   Clear
9:35 AM 49.6 °F - 45.1 °F 84% 30.08 in 10.0 mi Calm Calm - N/A   Clear
9:55 AM 53.1 °F - 46.4 °F 78% 30.08 in 10.0 mi Calm Calm - N/A   Clear
10:15 AM 57.0 °F - 47.8 °F 71% 30.08 in 10.0 mi Calm Calm - N/A   Clear
10:35 AM 61.3 °F - 46.9 °F 59% 30.08 in 10.0 mi Calm Calm - N/A   Clear
10:55 AM 65.5 °F - 46.2 °F 50% 30.08 in 10.0 mi Calm Calm - N/A   Clear
11:15 AM 68.2 °F - 43.3 °F 41% 30.08 in 10.0 mi SSE 3.5 mph - N/A   Clear
11:35 AM 70.7 °F - 42.3 °F 36% 30.08 in 10.0 mi South 3.5 mph - N/A   Clear
11:55 AM 72.0 °F - 39.6 °F 31% 30.08 in 10.0 mi SE 5.8 mph - N/A   Clear
12:15 PM 73.0 °F - 40.3 °F 31% 30.08 in 10.0 mi East 4.6 mph - N/A   Clear
12:35 PM 73.6 °F - 39.2 °F 29% 30.07 in 10.0 mi South 6.9 mph - N/A   Clear
12:55 PM 74.5 °F - 38.3 °F 27% 30.06 in 10.0 mi SW 4.6 mph - N/A   Clear
1:15 PM 75.0 °F - 38.3 °F 26% 30.05 in 10.0 mi South 8.1 mph - N/A   Clear
1:35 PM 75.0 °F - 37.4 °F 26% 30.04 in 10.0 mi South 5.8 mph - N/A   Clear
1:55 PM 75.0 °F - 40.3 °F 29% 30.03 in 10.0 mi South 8.1 mph - N/A   Clear
2:15 PM 76.3 °F - 39.7 °F 27% 30.02 in 10.0 mi SE 4.6 mph - N/A   Clear
2:35 PM 76.1 °F - 37.4 °F 25% 30.01 in 10.0 mi ESE 5.8 mph - N/A   Clear
2:55 PM 76.3 °F - 36.0 °F 23% 30.00 in 10.0 mi SSE 8.1 mph - N/A   Clear
3:15 PM 77.0 °F - 35.6 °F 22% 29.99 in 10.0 mi ESE 6.9 mph - N/A   Clear
3:35 PM 77.2 °F - 34.7 °F 21% 29.99 in 10.0 mi South 8.1 mph - N/A   Clear
3:55 PM 77.4 °F - 35.8 °F 22% 29.98 in 10.0 mi SSE 6.9 mph - N/A   Clear
4:15 PM 77.2 °F - 36.3 °F 23% 29.97 in 10.0 mi SE 5.8 mph - N/A   Clear
4:35 PM 77.2 °F - 36.5 °F 23% 29.97 in 10.0 mi South 6.9 mph - N/A   Clear
4:55 PM 77.0 °F - 35.4 °F 22% 29.97 in 10.0 mi South 5.8 mph - N/A   Clear
5:15 PM 77.0 °F - 34.0 °F 21% 29.97 in 10.0 mi South 9.2 mph - N/A   Clear
5:35 PM 76.5 °F - 34.9 °F 22% 29.96 in 10.0 mi SSE 5.8 mph - N/A   Clear
5:55 PM 76.1 °F - 35.2 °F 23% 29.96 in 10.0 mi SSE 4.6 mph - N/A   Clear
6:15 PM 74.7 °F - 36.1 °F 25% 29.96 in 10.0 mi SSE 4.6 mph - N/A   Clear
6:35 PM 72.9 °F - 36.7 °F 27% 29.96 in 10.0 mi SSE 5.8 mph - N/A   Clear
6:55 PM 70.9 °F - 36.9 °F 29% 29.96 in 10.0 mi SSE 4.6 mph - N/A   Clear
7:15 PM 69.1 °F - 36.7 °F 30% 29.96 in 10.0 mi SSE 3.5 mph - N/A   Clear
7:35 PM 67.1 °F - 37.0 °F 33% 29.96 in 10.0 mi SSE 4.6 mph - N/A   Clear
7:55 PM 67.1 °F - 36.5 °F 32% 29.97 in 10.0 mi SSE 4.6 mph - N/A   Clear
8:15 PM 65.8 °F - 37.2 °F 35% 29.97 in 10.0 mi Calm Calm - N/A   Clear
8:35 PM 58.3 °F - 40.8 °F 52% 29.97 in 10.0 mi Calm Calm - N/A   Clear
8:55 PM 56.8 °F - 42.1 °F 58% 29.97 in 10.0 mi Calm Calm - N/A   Clear
9:15 PM 55.4 °F - 41.2 °F 59% 29.97 in 10.0 mi Calm Calm - N/A   Clear
9:35 PM 54.9 °F - 44.8 °F 69% 29.97 in 10.0 mi Calm Calm - N/A   Clear
9:55 PM 53.1 °F - 44.4 °F 72% 29.97 in 10.0 mi Calm Calm - N/A   Clear
10:15 PM 52.9 °F - 43.7 °F 71% 29.96 in 10.0 mi Calm Calm - N/A   Clear
10:35 PM 52.2 °F - 43.7 °F 73% 29.96 in 10.0 mi Calm Calm - N/A   Clear
10:55 PM 51.8 °F - 45.3 °F 79% 29.96 in 10.0 mi Calm Calm - N/A   Clear
11:15 PM 51.1 °F - 45.0 °F 80% 29.96 in 10.0 mi Calm Calm - N/A   Clear
11:35 PM 51.3 °F - 45.3 °F 80% 29.96 in 10.0 mi Calm Calm - N/A   Clear
11:55 PM 50.4 °F - 45.3 °F 83% 29.96 in 10.0 mi Calm Calm - N/A   Clear